Keahole Point, HI

8:21 PM HST on January 19, 2018 (GMT -1000)
Kona International At Keahole

Weather History for PHKO - March, 2013

Change the Weather History Date:

Sunday, March 31, 2013

  Actual Average Record
Temperature  
Mean Temperature 76 °F -  
Max Temperature 81 °F 79 °F 90 °F (1983)
Min Temperature 71 °F 68 °F 63 °F (1987)
Cooling Degree Days 11    
Growing Degree Days 26 (Base 50)    
Moisture  
Dew Point 60 °F    
Average Humidity 59    
Maximum Humidity 73    
Minimum Humidity 49    
Precipitation  
Precipitation 0.00 in - - ()
Sea Level Pressure  
Sea Level Pressure 29.98 in    
Wind  
Wind Speed 11 mph (NNW)    
Max Wind Speed 17 mph    
Max Gust Speed 22 mph    
Visibility 10 miles    
Events      
Averages and records for this station are not official NWS values.
T = Trace of Precipitation, MM = Missing Value Source: NWS Daily Summary

Daily Weather History Graph

Daily Weather History Graph

Search for Another Location

Airport or City:

Trip Planner

Search our weather history database for the weather conditions in past years. The results will help you decide how hot, cold, wet, or windy it might be!

Date:

Astronomy

Mar. 31, 2013 Rise Set
Actual Time 6:18 AM HST 6:38 PM HST
Civil Twilight 5:56 AM HST 7:00 PM HST
Nautical Twilight 5:30 AM HST 7:26 PM HST
Astronomical Twilight 5:04 AM HST 7:52 PM HST
Moon 11:24 PM HST (3/31) 9:50 AM HST (3/31)
Length of Visible Light 13h 04m
Length of Day
12h 19m
Waning Gibbous, 75% of the Moon is Illuminated
Mar 31
Waning Gibbous
Apr 2
Last Quarter
Apr 9
New
Apr 18
First Quarter
Apr 25
Full

Hourly Weather History & Observations

Time (HST) Temp. Heat Index Dew Point Humidity Pressure Visibility Wind Dir Wind Speed Gust Speed Precip Events Conditions
12:53 AM 73.0 °F - 63.0 °F 71% 29.98 in 10.0 mi North 6.9 mph - N/A   Scattered Clouds
1:27 AM 73.4 °F - 62.6 °F 69% 29.96 in 10.0 mi NNE 5.8 mph - N/A   Mostly Cloudy
1:53 AM 73.0 °F - 63.0 °F 71% 29.96 in 10.0 mi NNW 17.3 mph - N/A   Mostly Cloudy
2:04 AM 73.4 °F - 62.6 °F 69% 29.96 in 10.0 mi NNW 16.1 mph 21.9 mph N/A   Scattered Clouds
2:53 AM 73.0 °F - 63.0 °F 71% 29.96 in 10.0 mi North 17.3 mph - N/A   Mostly Cloudy
3:53 AM 73.0 °F - 62.1 °F 68% 29.96 in 10.0 mi North 12.7 mph - N/A   Overcast
4:53 AM 73.0 °F - 61.0 °F 66% 29.97 in 10.0 mi North 8.1 mph - N/A   Partly Cloudy
5:53 AM 71.1 °F - 62.1 °F 73% 29.98 in 10.0 mi NNE 4.6 mph - N/A   Mostly Cloudy
6:53 AM 71.1 °F - 62.1 °F 73% 29.99 in 10.0 mi North 5.8 mph - N/A   Overcast
7:53 AM 75.0 °F - 62.1 °F 64% 30.00 in 10.0 mi North 17.3 mph - N/A   Clear
8:53 AM 77.0 °F - 61.0 °F 58% 30.02 in 10.0 mi North 16.1 mph - N/A   Clear
9:53 AM 80.1 °F 81.1 °F 61.0 °F 52% 30.01 in 10.0 mi NNW 16.1 mph - N/A   Clear
10:53 AM 80.1 °F 80.9 °F 60.1 °F 50% 30.00 in 10.0 mi NNW 13.8 mph - N/A   Clear
11:53 AM 81.0 °F 81.6 °F 60.1 °F 49% 30.00 in 10.0 mi NW 15.0 mph - N/A   Clear
12:53 PM 80.1 °F 80.9 °F 60.1 °F 50% 29.99 in 10.0 mi NW 13.8 mph - N/A   Clear
1:53 PM 80.1 °F 80.9 °F 60.1 °F 50% 29.97 in 10.0 mi NNW 15.0 mph - N/A   Clear
2:53 PM 79.0 °F - 60.1 °F 52% 29.96 in 10.0 mi NNW 15.0 mph - N/A   Partly Cloudy
3:53 PM 78.1 °F - 59.0 °F 52% 29.96 in 10.0 mi North 11.5 mph 18.4 mph N/A   Clear
4:53 PM 77.0 °F - 59.0 °F 54% 29.95 in 10.0 mi NNW 6.9 mph - N/A   Clear
5:53 PM 77.0 °F - 57.0 °F 50% 29.95 in 10.0 mi NNW 8.1 mph - N/A   Clear
6:53 PM 75.0 °F - 57.0 °F 53% 29.97 in 10.0 mi NNW 9.2 mph - N/A   Clear
7:53 PM 73.9 °F - 57.0 °F 55% 29.98 in 10.0 mi NNW 8.1 mph - N/A   Clear
8:53 PM 73.0 °F - 55.9 °F 55% 30.00 in 10.0 mi NNW 5.8 mph - N/A   Clear
9:53 PM 73.0 °F - 55.9 °F 55% 30.01 in 10.0 mi NW 8.1 mph - N/A   Clear
10:53 PM 72.0 °F - 57.0 °F 59% 30.01 in 10.0 mi WNW 11.5 mph - N/A   Clear
11:53 PM 72.0 °F - 55.0 °F 55% 29.99 in 10.0 mi NW 10.4 mph - N/A   Mostly Cloudy